TimeMDT,TemperatureF,Dew PointF,Humidity,Sea Level PressureIn,VisibilityMPH,Wind Direction,Wind SpeedMPH,Gust SpeedMPH,PrecipitationIn,Events,Conditions,WindDirDegrees,DateUTC
12:53 AM,66.0,55.9,70,29.94,10.0,SE,3.5,-,N/A,,Clear,130,2013-07-17 06:53:00
1:53 AM,66.0,55.9,70,29.94,10.0,SE,5.8,-,N/A,,Clear,130,2013-07-17 07:53:00
2:53 AM,64.0,57.9,80,29.99,10.0,East,4.6,-,N/A,,Clear,80,2013-07-17 08:53:00
3:53 AM,60.1,57.0,90,29.98,10.0,North,11.5,-,N/A,,Clear,10,2013-07-17 09:53:00
4:53 AM,60.1,55.9,86,29.96,10.0,NE,4.6,-,0.01,,Clear,40,2013-07-17 10:53:00
5:53 AM,61.0,57.9,90,29.98,10.0,North,3.5,-,N/A,,Clear,360,2013-07-17 11:53:00
6:53 AM,62.1,57.9,86,30.00,10.0,North,3.5,-,N/A,,Mostly Cloudy,10,2013-07-17 12:53:00
7:53 AM,64.9,60.1,84,30.03,10.0,NNE,8.1,-,N/A,,Scattered Clouds,30,2013-07-17 13:53:00
8:53 AM,70.0,60.1,71,30.03,10.0,North,6.9,-,N/A,,Clear,10,2013-07-17 14:53:00
9:53 AM,73.0,59.0,61,30.03,10.0,North,3.5,-,N/A,,Partly Cloudy,10,2013-07-17 15:53:00
10:53 AM,80.1,61.0,52,30.01,10.0,NW,8.1,-,N/A,,Partly Cloudy,320,2013-07-17 16:53:00
11:53 AM,84.9,60.1,43,30.01,10.0,NNW,8.1,-,N/A,,Clear,330,2013-07-17 17:53:00
12:53 PM,86.0,59.0,40,30.00,10.0,NW,9.2,-,N/A,,Clear,310,2013-07-17 18:53:00
1:53 PM,89.1,57.9,35,29.99,10.0,NW,10.4,-,N/A,,Partly Cloudy,310,2013-07-17 19:53:00
2:53 PM,91.9,53.1,27,29.96,10.0,West,9.2,-,N/A,,Scattered Clouds,280,2013-07-17 20:53:00
3:53 PM,93.0,43.0,18,29.96,10.0,WNW,11.5,-,N/A,,Scattered Clouds,290,2013-07-17 21:53:00
4:53 PM,91.0,46.0,21,29.95,10.0,Variable,5.8,-,N/A,,Scattered Clouds,0,2013-07-17 22:53:00
5:53 PM,89.1,48.9,25,29.94,10.0,South,5.8,-,N/A,,Scattered Clouds,180,2013-07-17 23:53:00
6:53 PM,91.0,46.0,21,29.92,10.0,SSW,6.9,-,N/A,,Partly Cloudy,200,2013-07-18 00:53:00
7:53 PM,90.0,48.0,24,29.93,10.0,SSW,5.8,-,N/A,,Partly Cloudy,200,2013-07-18 01:53:00
8:53 PM,82.0,54.0,38,29.94,10.0,Variable,3.5,-,N/A,,Partly Cloudy,0,2013-07-18 02:53:00
9:53 PM,75.0,54.0,48,29.97,10.0,Variable,4.6,-,N/A,,Clear,0,2013-07-18 03:53:00
10:53 PM,72.0,54.0,53,29.97,10.0,Calm,Calm,-,N/A,,Clear,0,2013-07-18 04:53:00
11:53 PM,70.0,55.0,59,29.97,10.0,ESE,3.5,-,N/A,,Partly Cloudy,110,2013-07-18 05:53:00